Location: Mannheim
(49.4880°N, 8.4650°E)
Time: 12:18:42
(UTC+02:00)

ISS - Pass Details

Date: 23 September 2022
Orbit: 414 x 417 km, 51.6° (Epoch: 01 October)

Event Time Altitude Azimuth Distance (km) Brightness Sun altitude
Rises 20:31:26 0° 268° (W) 2,361 1.7 -12.0°
Reaches altitude 10° 20:33:32 10° 272° (W) 1,499 0.5 -12.3°
Maximum altitude 20:36:53 60° 354° (N) 484 -3.4 -12.8°
Enters shadow 20:39:05 19° 70° (ENE) 1,057 -2.2 -13.2°
